Location: Austin
(30.3000°N, 97.7500°W)
Time: 23:20:13
(UTC-06:00)

Cosmos 1603 - Pass Details

Date: 04 November 2025
Orbit: 829 x 859 km, 71.0° (Epoch: 15 November)

Event Time Altitude Azimuth Distance (km) Brightness Sun altitude
Rises 19:30:48 0° 334° (NNW) 3,413 7.1 -24.1°
Reaches altitude 10° 19:33:18 10° 331° (NNW) 2,470 6.4 -24.6°
Maximum altitude 19:38:49 56° 254° (WSW) 997 4.3 -25.8°
Drops below altitude 10° 19:44:16 10° 177° (S) 2,438 6.1 -27.0°
Sets 19:46:44 0° 173° (S) 3,365 6.8 -27.5°
